| time (UTC) | temp F | wind direction | speed MPH | gust MPH | rain 1hr in | rain 24hr in | rain mn in | humidity % | barometer mb |
| 20260504035330 | 56 | 355 | 15.0 | 18.0 | 0.00 | 0.00 | 0.00 | 37 | 1009.5 |
| 20260504034826 | 56 | 349 | 15.0 | 17.0 | 0.00 | 0.00 | 0.00 | 37 | 1009.6 |
| 20260504034324 | 57 | 357 | 16.0 | 21.0 | 0.00 | 0.00 | 0.00 | 36 | 1009.6 |
| 20260504033821 | 57 | 357 | 14.0 | 17.0 | 0.00 | 0.00 | 0.00 | 36 | 1009.2 |
| 20260504033319 | 57 | 8 | 18.0 | 23.0 | 0.00 | 0.00 | 0.00 | 36 | 1009.1 |
| 20260504032815 | 57 | 349 | 18.0 | 21.0 | 0.00 | 0.00 | 0.00 | 36 | 1009.2 |
| 20260504032312 | 57 | 350 | 16.0 | 21.0 | 0.00 | 0.00 | 0.00 | 36 | 1008.9 |
| 20260504031809 | 57 | 353 | 23.0 | 29.0 | 0.00 | 0.00 | 0.00 | 36 | 1008.7 |
| 20260504031307 | 58 | 6 | 15.0 | 25.0 | 0.00 | 0.00 | 0.00 | 35 | 1008.8 |
| 20260504030803 | 58 | 344 | 16.0 | 22.0 | 0.00 | 0.00 | 0.00 | 35 | 1008.9 |
| 20260504030300 | 59 | 5 | 16.0 | 18.0 | 0.00 | 0.00 | 0.00 | 35 | 1008.8 |
| 20260504025756 | 59 | 359 | 20.0 | 21.0 | 0.00 | 0.00 | 0.00 | 35 | 1008.7 |
| 20260504025253 | 59 | 351 | 12.0 | 18.0 | 0.00 | 0.00 | 0.00 | 35 | 1008.8 |
| 20260504024749 | 59 | 345 | 17.0 | 19.0 | 0.00 | 0.00 | 0.00 | 35 | 1008.5 |
| 20260504024246 | 60 | 353 | 15.0 | 17.0 | 0.00 | 0.00 | 0.00 | 35 | 1008.8 |
| 20260504023743 | 60 | 352 | 13.0 | 17.0 | 0.00 | 0.00 | 0.00 | 34 | 1008.6 |
| 20260504023239 | 61 | 1 | 15.0 | 18.0 | 0.00 | 0.00 | 0.00 | 34 | 1008.5 |
| 20260504022735 | 61 | 4 | 16.0 | 19.0 | 0.00 | 0.00 | 0.00 | 33 | 1008.6 |
| 20260504022232 | 62 | 7 | 13.0 | 16.0 | 0.00 | 0.00 | 0.00 | 30 | 1008.8 |
| 20260504021729 | 66 | 342 | 7.0 | 9.0 | 0.00 | 0.00 | 0.00 | 23 | 1008.5 |
| 20260504021226 | 66 | 342 | 7.0 | 9.0 | 0.00 | 0.00 | 0.00 | 23 | 1008.5 |
| 20260504020723 | 66 | 342 | 7.0 | 9.0 | 0.00 | 0.00 | 0.00 | 23 | 1008.6 |
| 20260504020220 | 66 | 342 | 7.0 | 9.0 | 0.00 | 0.00 | 0.00 | 23 | 1008.3 |
| 20260504015716 | 66 | 342 | 7.0 | 9.0 | 0.00 | 0.00 | 0.00 | 23 | 1008.6 |
| 20260504015212 | 66 | 345 | 9.0 | 10.0 | 0.00 | 0.00 | 0.00 | 23 | 1008.5 |
| 20260504014708 | 67 | 332 | 6.0 | 10.0 | 0.00 | 0.00 | 0.00 | 22 | 1008.6 |
| 20260504014205 | 67 | 355 | 6.0 | 8.0 | 0.00 | 0.00 | 0.00 | 22 | 1008.7 |
| 20260504013703 | 67 | 352 | 8.0 | 11.0 | 0.00 | 0.00 | 0.00 | 21 | 1008.7 |
| 20260504013200 | 67 | 332 | 9.0 | 11.0 | 0.00 | 0.00 | 0.00 | 21 | 1008.8 |
| 20260504012656 | 68 | 332 | 7.0 | 10.0 | 0.00 | 0.00 | 0.00 | 20 | 1008.6 |
| 20260504012155 | 69 | 346 | 11.0 | 13.0 | 0.00 | 0.00 | 0.00 | 20 | 1008.7 |
| 20260504011651 | 69 | 0 | 9.0 | 11.0 | 0.00 | 0.00 | 0.00 | 20 | 1008.7 |
| 20260504011148 | 69 | 348 | 11.0 | 14.0 | 0.00 | 0.00 | 0.00 | 20 | 1008.7 |
| 20260504010644 | 69 | 330 | 9.0 | 14.0 | 0.00 | 0.00 | 0.00 | 20 | 1008.3 |
| 20260504010139 | 69 | 350 | 12.0 | 15.0 | 0.00 | 0.00 | 0.00 | 20 | 1008.6 |
| 20260504005637 | 69 | 304 | 8.0 | 14.0 | 0.00 | 0.00 | 0.00 | 20 | 1008.6 |
| 20260504005133 | 70 | 313 | 11.0 | 15.0 | 0.00 | 0.00 | 0.00 | 20 | 1008.8 |
| 20260504004632 | 70 | 346 | 13.0 | 14.0 | 0.00 | 0.00 | 0.00 | 19 | 1008.8 |
| 20260504004128 | 70 | 330 | 10.0 | 13.0 | 0.00 | 0.00 | 0.00 | 20 | 1008.9 |
| 20260504003625 | 70 | 302 | 9.0 | 10.0 | 0.00 | 0.00 | 0.00 | 20 | 1009.0 |
| 20260504003121 | 70 | 295 | 8.0 | 15.0 | 0.00 | 0.00 | 0.00 | 20 | 1008.8 |
| 20260504002618 | 70 | 300 | 7.0 | 13.0 | 0.00 | 0.00 | 0.00 | 20 | 1009.0 |
| 20260504002116 | 70 | 292 | 7.0 | 13.0 | 0.00 | 0.00 | 0.00 | 20 | 1008.9 |
| 20260504001614 | 70 | 315 | 10.0 | 13.0 | 0.00 | 0.00 | 0.00 | 20 | 1008.9 |
| 20260504001109 | 70 | 322 | 12.0 | 16.0 | 0.00 | 0.00 | 0.00 | 20 | 1009.1 |
| 20260504000607 | 70 | 320 | 9.0 | 9.0 | 0.00 | 0.00 | 0.00 | 20 | 1009.3 |
| 20260504000104 | 70 | 304 | 12.0 | 15.0 | 0.00 | 0.00 | 0.00 | 20 | 1009.1 |
| 20260503235602 | 70 | 301 | 13.0 | 19.0 | 0.00 | 0.00 | 0.00 | 20 | 1009.2 |
| 20260503235058 | 71 | 331 | 9.0 | 13.0 | 0.00 | 0.00 | 0.00 | 20 | 1009.1 |
| 20260503234556 | 71 | 278 | 9.0 | 13.0 | 0.00 | 0.00 | 0.00 | 19 | 1009.0 |
| 20260503234054 | 71 | 291 | 8.0 | 10.0 | 0.00 | 0.00 | 0.00 | 19 | 1009.2 |
| 20260503233550 | 71 | 332 | 12.0 | 17.0 | 0.00 | 0.00 | 0.00 | 20 | 1009.1 |
| 20260503233046 | 70 | 307 | 9.0 | 11.0 | 0.00 | 0.00 | 0.00 | 20 | 1009.1 |
| 20260503232544 | 71 | 315 | 12.0 | 15.0 | 0.00 | 0.00 | 0.00 | 19 | 1009.2 |
| 20260503232041 | 71 | 275 | 12.0 | 16.0 | 0.00 | 0.00 | 0.00 | 19 | 1009.3 |
| 20260503231539 | 70 | 273 | 11.0 | 16.0 | 0.00 | 0.00 | 0.00 | 20 | 1009.5 |
| 20260503231035 | 71 | 262 | 12.0 | 18.0 | 0.00 | 0.00 | 0.00 | 19 | 1009.5 |
| 20260503230532 | 71 | 313 | 6.0 | 15.0 | 0.00 | 0.00 | 0.00 | 19 | 1009.2 |
| 20260503230030 | 71 | 267 | 8.0 | 9.0 | 0.00 | 0.00 | 0.00 | 19 | 1009.6 |
| 20260503225526 | 71 | 260 | 11.0 | 14.0 | 0.00 | 0.00 | 0.00 | 19 | 1009.6 |
| 20260503225021 | 71 | 282 | 16.0 | 21.0 | 0.00 | 0.00 | 0.00 | 19 | 1009.3 |
| 20260503224519 | 71 | 292 | 9.0 | 16.0 | 0.00 | 0.00 | 0.00 | 19 | 1009.6 |
| 20260503224017 | 71 | 288 | 8.0 | 13.0 | 0.00 | 0.00 | 0.00 | 19 | 1009.8 |
| 20260503223515 | 71 | 310 | 11.0 | 17.0 | 0.00 | 0.00 | 0.00 | 20 | 1009.6 |
| 20260503223010 | 71 | 258 | 11.0 | 16.0 | 0.00 | 0.00 | 0.00 | 19 | 1009.6 |
| 20260503222508 | 71 | 293 | 7.0 | 13.0 | 0.00 | 0.00 | 0.00 | 19 | 1009.8 |
| 20260503222006 | 71 | 307 | 10.0 | 17.0 | 0.00 | 0.00 | 0.00 | 19 | 1009.8 |
| 20260503221504 | 70 | 268 | 6.0 | 8.0 | 0.00 | 0.00 | 0.00 | 19 | 1009.8 |
| 20260503221001 | 70 | 278 | 12.0 | 17.0 | 0.00 | 0.00 | 0.00 | 19 | 1010.0 |
| 20260503220457 | 70 | 280 | 12.0 | 18.0 | 0.00 | 0.00 | 0.00 | 19 | 1009.8 |
| 20260503215954 | 70 | 319 | 11.0 | 11.0 | 0.00 | 0.00 | 0.00 | 19 | 1009.9 |
| 20260503215451 | 71 | 275 | 11.0 | 18.0 | 0.00 | 0.00 | 0.00 | 19 | 1010.1 |
| 20260503214948 | 71 | 288 | 12.0 | 17.0 | 0.00 | 0.00 | 0.00 | 20 | 1010.0 |
| 20260503214446 | 70 | 279 | 6.0 | 10.0 | 0.00 | 0.00 | 0.00 | 20 | 1010.2 |
| 20260503213943 | 69 | 284 | 14.0 | 15.0 | 0.00 | 0.00 | 0.00 | 19 | 1010.2 |
| 20260503213442 | 70 | 298 | 14.0 | 18.0 | 0.00 | 0.00 | 0.00 | 19 | 1010.4 |
| 20260503212937 | 71 | 277 | 13.0 | 19.0 | 0.00 | 0.00 | 0.00 | 19 | 1010.5 |
| 20260503212435 | 70 | 277 | 8.0 | 9.0 | 0.00 | 0.00 | 0.00 | 19 | 1010.4 |
| 20260503211932 | 70 | 228 | 9.0 | 16.0 | 0.00 | 0.00 | 0.00 | 19 | 1010.6 |
| 20260503211429 | 71 | 299 | 12.0 | 23.0 | 0.00 | 0.00 | 0.00 | 20 | 1010.5 |
| 20260503210924 | 70 | 273 | 7.0 | 10.0 | 0.00 | 0.00 | 0.00 | 20 | 1010.7 |
| 20260503210422 | 69 | 320 | 5.0 | 17.0 | 0.00 | 0.00 | 0.00 | 21 | 1010.8 |
| 20260503205916 | 69 | 291 | 12.0 | 19.0 | 0.00 | 0.00 | 0.00 | 19 | 1010.8 |
| 20260503205414 | 69 | 277 | 13.0 | 17.0 | 0.00 | 0.00 | 0.00 | 20 | 1011.0 |
| 20260503204909 | 70 | 295 | 16.0 | 21.0 | 0.00 | 0.00 | 0.00 | 20 | 1010.9 |
| 20260503204407 | 69 | 286 | 7.0 | 13.0 | 0.00 | 0.00 | 0.00 | 20 | 1010.8 |
| 20260503203904 | 69 | 263 | 10.0 | 13.0 | 0.00 | 0.00 | 0.00 | 20 | 1011.0 |
| 20260503203401 | 70 | 305 | 14.0 | 19.0 | 0.00 | 0.00 | 0.00 | 20 | 1011.1 |
| 20260503202858 | 70 | 248 | 8.0 | 11.0 | 0.00 | 0.00 | 0.00 | 21 | 1011.1 |
| 20260503202356 | 68 | 283 | 9.0 | 11.0 | 0.00 | 0.00 | 0.00 | 21 | 1011.1 |
| 20260503201854 | 69 | 255 | 11.0 | 14.0 | 0.00 | 0.00 | 0.00 | 21 | 1011.4 |
| 20260503201351 | 68 | 259 | 7.0 | 14.0 | 0.00 | 0.00 | 0.00 | 21 | 1011.4 |
| 20260503200849 | 68 | 291 | 13.0 | 16.0 | 0.00 | 0.00 | 0.00 | 22 | 1011.2 |
| 20260503200344 | 69 | 281 | 12.0 | 16.0 | 0.00 | 0.00 | 0.00 | 22 | 1011.2 |
| 20260503195842 | 69 | 265 | 7.0 | 11.0 | 0.00 | 0.00 | 0.00 | 22 | 1011.4 |
| 20260503195338 | 68 | 259 | 13.0 | 16.0 | 0.00 | 0.00 | 0.00 | 22 | 1011.6 |
| 20260503194835 | 68 | 307 | 7.0 | 11.0 | 0.00 | 0.00 | 0.00 | 21 | 1011.7 |
| 20260503194331 | 68 | 325 | 6.0 | 9.0 | 0.00 | 0.00 | 0.00 | 22 | 1011.8 |
| 20260503193828 | 69 | 278 | 17.0 | 21.0 | 0.00 | 0.00 | 0.00 | 22 | 1012.0 |
| 20260503193324 | 68 | 291 | 4.0 | 14.0 | 0.00 | 0.00 | 0.00 | 22 | 1011.9 |
| 20260503192820 | 67 | 244 | 7.0 | 15.0 | 0.00 | 0.00 | 0.00 | 21 | 1011.8 |
| 20260503192315 | 67 | 261 | 5.0 | 13.0 | 0.00 | 0.00 | 0.00 | 23 | 1012.0 |
| 20260503191811 | 68 | 288 | 3.0 | 15.0 | 0.00 | 0.00 | 0.00 | 22 | 1012.1 |
| 20260503191309 | 67 | 266 | 11.0 | 15.0 | 0.00 | 0.00 | 0.00 | 22 | 1012.1 |
| 20260503190806 | 67 | 275 | 7.0 | 11.0 | 0.00 | 0.00 | 0.00 | 24 | 1012.0 |
| 20260503190303 | 67 | 279 | 6.0 | 10.0 | 0.00 | 0.00 | 0.00 | 23 | 1012.3 |
| 20260503185801 | 66 | 282 | 0.0 | 14.0 | 0.00 | 0.00 | 0.00 | 24 | 1012.6 |
| 20260503185256 | 66 | 328 | 11.0 | 17.0 | 0.00 | 0.00 | 0.00 | 24 | 1012.6 |
| 20260503184755 | 67 | 301 | 13.0 | 15.0 | 0.00 | 0.00 | 0.00 | 23 | 1012.6 |
| 20260503184252 | 66 | 272 | 11.0 | 16.0 | 0.00 | 0.00 | 0.00 | 23 | 1012.6 |
| 20260503183748 | 66 | 298 | 11.0 | 13.0 | 0.00 | 0.00 | 0.00 | 23 | 1012.6 |
| 20260503183245 | 66 | 293 | 10.0 | 13.0 | 0.00 | 0.00 | 0.00 | 23 | 1012.7 |
| 20260503182743 | 66 | 272 | 11.0 | 14.0 | 0.00 | 0.00 | 0.00 | 23 | 1012.8 |
| 20260503182242 | 66 | 328 | 6.0 | 15.0 | 0.00 | 0.00 | 0.00 | 23 | 1012.7 |
| 20260503181738 | 67 | 289 | 4.0 | 10.0 | 0.00 | 0.00 | 0.00 | 23 | 1012.7 |
| 20260503181235 | 66 | 262 | 7.0 | 11.0 | 0.00 | 0.00 | 0.00 | 23 | 1012.6 |
| 20260503180731 | 66 | 271 | 3.0 | 6.0 | 0.00 | 0.00 | 0.00 | 23 | 1012.9 |
| 20260503180230 | 67 | 297 | 5.0 | 9.0 | 0.00 | 0.00 | 0.00 | 22 | 1012.9 |
| 20260503175726 | 66 | 213 | 4.0 | 11.0 | 0.00 | 0.00 | 0.00 | 23 | 1012.8 |
| 20260503175224 | 66 | 343 | 4.0 | 13.0 | 0.00 | 0.00 | 0.00 | 23 | 1013.0 |
| 20260503174720 | 66 | 354 | 2.0 | 11.0 | 0.00 | 0.00 | 0.00 | 22 | 1013.0 |
| 20260503174218 | 66 | 351 | 10.0 | 15.0 | 0.00 | 0.00 | 0.00 | 24 | 1013.0 |
| 20260503173713 | 65 | 320 | 9.0 | 13.0 | 0.00 | 0.00 | 0.00 | 22 | 1013.4 |
| 20260503173209 | 65 | 337 | 11.0 | 15.0 | 0.00 | 0.00 | 0.00 | 22 | 1013.4 |
| 20260503172706 | 65 | 327 | 9.0 | 15.0 | 0.00 | 0.00 | 0.00 | 24 | 1013.3 |
| 20260503172203 | 65 | 332 | 9.0 | 15.0 | 0.00 | 0.00 | 0.00 | 24 | 1013.5 |
| 20260503171659 | 64 | 330 | 9.0 | 15.0 | 0.00 | 0.00 | 0.00 | 24 | 1013.4 |
| 20260503171157 | 64 | 324 | 8.0 | 14.0 | 0.00 | 0.00 | 0.00 | 24 | 1013.3 |
| 20260503170654 | 63 | 354 | 10.0 | 11.0 | 0.00 | 0.00 | 0.00 | 25 | 1013.3 |
| 20260503170151 | 64 | 334 | 12.0 | 15.0 | 0.00 | 0.00 | 0.00 | 26 | 1013.1 |
| 20260503160112 | 66 | 230 | 6.0 | 13.0 | 0.00 | 0.00 | 0.00 | 22 | 1013.4 |
| 20260503150542 | 61 | 270 | 0.0 | 4.0 | 0.00 | 0.00 | 0.00 | 33 | 1013.5 |
| 20260503130932 | 50 | 125 | 0.0 | 0.0 | 0.00 | 0.00 | 0.00 | 62 | 1014.4 |
| 20260503130430 | 48 | 248 | 0.0 | 0.0 | 0.00 | 0.00 | 0.00 | 63 | 1014.0 |
| 20260503110829 | 45 | 317 | 2.0 | 2.0 | 0.00 | 0.00 | 0.00 | 69 | 1014.7 |
| 20260503110325 | 46 | 319 | 1.0 | 2.0 | 0.00 | 0.00 | 0.00 | 67 | 1014.9 |
| 20260503100252 | 44 | 358 | 0.0 | 2.0 | 0.00 | 0.00 | 0.00 | 73 | 1015.3 |
| 20260503090211 | 42 | 34 | 0.0 | 0.0 | 0.00 | 0.00 | 0.00 | 75 | 1015.5 |
| 20260503081138 | 46 | 46 | 0.0 | 0.0 | 0.00 | 0.00 | 0.00 | 67 | 1016.0 |
| 20260503080634 | 46 | 45 | 0.0 | 0.0 | 0.00 | 0.00 | 0.00 | 67 | 1015.9 |
| 20260503080131 | 45 | 45 | 0.0 | 0.0 | 0.00 | 0.00 | 0.00 | 67 | 1015.9 |
| 20260503072608 | 0 | 0.0 | 0.0 | 0.00 | 0.00 | 0.00 | 1015.9 | ||
| 20260503072105 | 0 | 0.0 | 0.0 | 0.00 | 0.00 | 0.00 | 1015.9 | ||
| 20260503071602 | 0 | 0.0 | 0.0 | 0.00 | 0.00 | 0.00 | 1016.2 | ||
| 20260503071059 | 0 | 0.0 | 0.0 | 0.00 | 0.00 | 0.00 | 1016.2 | ||
| 20260503070555 | 0 | 0.0 | 0.0 | 0.00 | 0.00 | 0.00 | 1015.9 | ||
| 20260503055014 | 0 | 0.0 | 0.0 | 0.00 | 0.00 | 0.00 | 1016.3 | ||
| 20260503054510 | 0 | 0.0 | 0.0 | 0.00 | 0.00 | 0.00 | 1016.4 | ||
| 20260503054008 | 0 | 0.0 | 0.0 | 0.00 | 0.00 | 0.00 | 1016.3 | ||
| 20260503053506 | 50 | 83 | 0.0 | 0.0 | 0.00 | 0.00 | 0.00 | 63 | 1016.6 |
| 20260503053002 | 50 | 83 | 0.0 | 0.0 | 0.00 | 0.00 | 0.00 | 63 | 1016.6 |
| 20260503052500 | 50 | 83 | 0.0 | 0.0 | 0.00 | 0.00 | 0.00 | 63 | 1016.5 |
| 20260503051956 | 50 | 83 | 0.0 | 0.0 | 0.00 | 0.00 | 0.00 | 63 | 1016.5 |
| 20260503051451 | 50 | 83 | 0.0 | 0.0 | 0.00 | 0.00 | 0.00 | 63 | 1016.4 |
| 20260503050949 | 50 | 83 | 0.0 | 0.0 | 0.00 | 0.00 | 0.00 | 63 | 1016.6 |
| 20260503050445 | 50 | 83 | 0.0 | 0.0 | 0.00 | 0.00 | 0.00 | 63 | 1016.5 |
| 20260503045943 | 50 | 83 | 0.0 | 0.0 | 0.00 | 0.00 | 0.00 | 63 | 1016.5 |
| 20260503045440 | 50 | 83 | 0.0 | 0.0 | 0.00 | 0.00 | 0.00 | 63 | 1016.6 |
| 20260503044936 | 50 | 83 | 0.0 | 0.0 | 0.00 | 0.00 | 0.00 | 63 | 1016.5 |
| 20260503044433 | 50 | 83 | 0.0 | 0.0 | 0.00 | 0.00 | 0.00 | 63 | 1016.5 |
| 20260503043931 | 50 | 83 | 0.0 | 0.0 | 0.00 | 0.00 | 0.00 | 63 | 1016.7 |
| 20260503043427 | 52 | 122 | 0.0 | 0.0 | 0.00 | 0.00 | 0.00 | 59 | 1016.6 |
| 20260503042924 | 52 | 122 | 0.0 | 0.0 | 0.00 | 0.00 | 0.00 | 59 | 1016.6 |
| 20260503042420 | 52 | 122 | 0.0 | 0.0 | 0.00 | 0.00 | 0.00 | 59 | 1016.7 |
| 20260503041917 | 52 | 122 | 0.0 | 0.0 | 0.00 | 0.00 | 0.00 | 59 | 1016.7 |
| 20260503041414 | 52 | 122 | 0.0 | 0.0 | 0.00 | 0.00 | 0.00 | 59 | 1016.9 |
| 20260503040911 | 52 | 122 | 0.0 | 0.0 | 0.00 | 0.00 | 0.00 | 59 | 1016.9 |
| 20260503040409 | 52 | 125 | 0.0 | 0.0 | 0.00 | 0.00 | 0.00 | 59 | 1016.7 |
| 20260503035906 | 52 | 121 | 0.0 | 0.0 | 0.00 | 0.00 | 0.00 | 58 | 1016.6 |